| time (UTC) | temp C | wind direction | speed KPH | gust KPH | rain 1hr cm | rain 24hr cm | rain mn cm | humidity % | barometer mb |
| 20260504044521 | 3 | 182 | 14.5 | 40.2 | 0.05 | 1.80 | 0.05 | 92 | 975.3 |
| 20260504043022 | 3 | 205 | 14.5 | 35.4 | 0.05 | 1.78 | 0.05 | 92 | 976.0 |
| 20260504041530 | 3 | 140 | 17.7 | 40.2 | 0.03 | 1.75 | 0.03 | 92 | 976.8 |
| 20260504040013 | 3 | 144 | 14.5 | 38.6 | 0.00 | 1.75 | 0.00 | 91 | 977.4 |
| 20260504034514 | 3 | 178 | 24.1 | 45.1 | 0.00 | 1.75 | 0.00 | 91 | 978.1 |
| 20260504033008 | 3 | 179 | 17.7 | 38.6 | 0.00 | 1.75 | 0.00 | 90 | 979.0 |
| 20260504031506 | 3 | 137 | 22.5 | 37.0 | 0.00 | 1.75 | 0.00 | 90 | 979.6 |
| 20260504030100 | 3 | 142 | 16.1 | 40.2 | 0.00 | 1.75 | 0.00 | 90 | 980.4 |
| 20260504024603 | 4 | 137 | 17.7 | 37.0 | 0.00 | 1.75 | 1.75 | 90 | 981.2 |
| 20260504023054 | 4 | 162 | 11.3 | 32.2 | 0.00 | 1.75 | 1.75 | 90 | 981.8 |
| 20260504021551 | 5 | 269 | 9.7 | 24.1 | 0.03 | 1.75 | 1.75 | 92 | 982.7 |
| 20260504020106 | 5 | 198 | 11.3 | 27.4 | 0.03 | 1.75 | 1.75 | 92 | 983.3 |
| 20260504014546 | 5 | 205 | 3.2 | 20.9 | 0.05 | 1.75 | 1.75 | 93 | 983.8 |
| 20260504013045 | 5 | 163 | 4.8 | 27.4 | 0.08 | 1.75 | 1.75 | 94 | 984.2 |
| 20260504011542 | 5 | 115 | 11.3 | 27.4 | 0.10 | 1.73 | 1.73 | 94 | 984.5 |
| 20260504010039 | 4 | 119 | 9.7 | 22.5 | 0.15 | 1.70 | 1.70 | 94 | 985.0 |
| 20260504004536 | 4 | 78 | 11.3 | 25.7 | 0.15 | 1.68 | 1.68 | 94 | 985.5 |
| 20260504003033 | 3 | 60 | 9.7 | 22.5 | 0.20 | 1.65 | 1.65 | 93 | 986.5 |
| 20260504001536 | 3 | 101 | 8.0 | 24.1 | 0.25 | 1.63 | 1.63 | 93 | 987.3 |
| 20260504000028 | 3 | 90 | 9.7 | 27.4 | 0.33 | 1.55 | 1.55 | 93 | 988.5 |
| 20260503234526 | 3 | 81 | 6.4 | 17.7 | 0.48 | 1.50 | 1.50 | 93 | 989.0 |
| 20260503233034 | 3 | 49 | 6.4 | 29.0 | 0.61 | 1.42 | 1.42 | 93 | 989.5 |
| 20260503231520 | 3 | 61 | 6.4 | 17.7 | 0.56 | 1.35 | 1.35 | 93 | 990.7 |
| 20260503230021 | 3 | 44 | 8.0 | 19.3 | 0.51 | 1.19 | 1.19 | 93 | 991.9 |
| 20260503224512 | 3 | 65 | 6.4 | 19.3 | 0.41 | 1.02 | 1.02 | 93 | 992.8 |
| 20260503223009 | 3 | 78 | 4.8 | 17.7 | 0.33 | 0.86 | 0.86 | 93 | 993.9 |
| 20260503221507 | 2 | 86 | 6.4 | 14.5 | 0.38 | 0.79 | 0.79 | 93 | 994.7 |
| 20260503220005 | 2 | 94 | 3.2 | 14.5 | 0.38 | 0.69 | 0.69 | 93 | 995.2 |
| 20260503214507 | 2 | 91 | 4.8 | 16.1 | 0.46 | 0.61 | 0.61 | 93 | 995.5 |
| 20260503213002 | 2 | 118 | 4.8 | 17.7 | 0.41 | 0.51 | 0.51 | 93 | 996.2 |
| 20260503211601 | 2 | 59 | 6.4 | 17.7 | 0.28 | 0.41 | 0.41 | 92 | 995.9 |
| 20260503210100 | 2 | 76 | 6.4 | 20.9 | 0.20 | 0.30 | 0.30 | 92 | 997.0 |
| 20260503204556 | 2 | 34 | 4.8 | 19.3 | 0.05 | 0.15 | 0.15 | 92 | 997.8 |
| 20260503203056 | 2 | 72 | 4.8 | 20.9 | 0.03 | 0.13 | 0.13 | 92 | 998.8 |
| 20260503201552 | 2 | 69 | 4.8 | 20.9 | 0.05 | 0.13 | 0.13 | 91 | 999.4 |
| 20260503200053 | 2 | 83 | 3.2 | 17.7 | 0.03 | 0.10 | 0.10 | 90 | 1000.8 |
| 20260503194555 | 3 | 49 | 4.8 | 17.7 | 0.03 | 0.10 | 0.10 | 90 | 1000.9 |
| 20260503193046 | 3 | 107 | 6.4 | 20.9 | 0.05 | 0.10 | 0.10 | 90 | 1001.1 |
| 20260503191546 | 3 | 45 | 8.0 | 20.9 | 0.05 | 0.08 | 0.08 | 89 | 1001.5 |
| 20260503190044 | 4 | 37 | 6.4 | 16.1 | 0.05 | 0.08 | 0.08 | 89 | 1002.8 |
| 20260503184537 | 5 | 76 | 4.8 | 16.1 | 0.05 | 0.08 | 0.08 | 88 | 1004.1 |
| 20260503183035 | 5 | 39 | 3.2 | 11.3 | 0.05 | 0.05 | 0.05 | 86 | 1005.1 |
| 20260503181532 | 6 | 68 | 4.8 | 12.9 | 0.00 | 0.03 | 0.03 | 83 | 1005.9 |
| 20260503180032 | 6 | 71 | 6.4 | 16.1 | 0.00 | 0.03 | 0.03 | 80 | 1005.7 |
| 20260503174528 | 6 | 56 | 3.2 | 12.9 | 0.00 | 0.03 | 0.03 | 79 | 1006.8 |
| 20260503173028 | 6 | 69 | 0.0 | 11.3 | 0.00 | 0.03 | 0.03 | 78 | 1008.0 |
| 20260503171522 | 6 | 24 | 1.6 | 8.0 | 0.00 | 0.03 | 0.03 | 77 | 1008.3 |
| 20260503140110 | 10 | 68 | 1.6 | 8.0 | 0.00 | 0.03 | 0.03 | 68 | 1011.8 |
| 20260503081502 | 0 | 225 | 0.0 | 0.0 | 0.00 | 0.00 | 0.00 | 93 | 1015.7 |
| 20260503071615 | 0 | 221 | 0.0 | 3.2 | 0.00 | 0.03 | 0.00 | 93 | 1015.9 |